Location: Morisset
(33.1080°S, 151.4871°E)
Time: 09:07:59
(UTC+00:00)

CZ-2C R/B - Pass Details

Date: 29 October 2020
Orbit: 667 x 785 km, 98.2° (Epoch: 27 November)

Event Time Altitude Azimuth Distance (km) Brightness Sun altitude
Exits shadow 16:53:02 17° 28° (NNE) 1,690 4.2 -23.9°
Maximum altitude 16:56:30 61° 105° (ESE) 768 2.7 -23.4°
Drops below altitude 10° 17:01:03 10° 184° (S) 2,124 5.2 -22.6°
Sets 17:03:19 0° 187° (S) 3,050 6.0 -22.2°
